TOURFACTS.DK  
Stats and Facts from Tour de France.

Tour de France 2019 starts in 348 days
  Riders   Stages   Teams   Summits   Yearly  


 
Search by year

After 2018 - Stage 14:
 15000 starters.
  5163 different riders.
  639 teams.
  2246 stages.
  456 restdays.
  441957.60 km.
  5678 abandonnees.


Top 3
GC
Christopher Froome86:20:55
Rigoberto Urán86:21:49
Romain Bardet86:23:15
Climb
Warren Barguil169 pt.
Primoz Roglic80 pt.
Thomas De Gendt64 pt.
Sprint
Michael Matthews359 pt.
André Greipel234 pt.
Edvald Boasson Hagen220 pt.
Youth
Simon Yates86:27:09
Louis Meintjes86:29:15
Emanuel Buchmann86:54:16
Facts from Tour de France 1931
  |   Stages.  |   Stage winners.  |   Days in yellow  |   Average speed.  |   Route.  |   Teams.  |   All riders.  |   Rookies.  |  

  |   Withdrawls.  |   GC.  |   Polka  |   Green  |   White  |   Summits. (In tour)  |   Miscellaneous.  |  

Stage 7 on July 6th. 1931
         Owning:    Rafaële Di Paco    
Pick a stage:  1 2 3 4 5 6 7 8 9 10 11 12 13 14 15 16 17 18 19 20 21 22 23 24
From: Bordeaux    To: BayonneDist:180.00 km.

Average speed for all riders in stage:  31,285 km./hr.
    Place:Name:Team:Time:Km/h:
BELGerard LonckeTouristes Routiers05:37:45  +  00:00:00=31,976 
AUTMax BullaTouristes Routiers05:37:45  +  00:00:00=31,976 
FRAAndré GodinatTouristes Routiers05:37:45  +  00:00:00=31,976 
4 FRAJean BidotTouristes Routiers05:37:45  +  00:00:00=31,976 
5 ITAGiuseppe PanceraTouristes Routiers05:37:45  +  00:00:00=31,976 
6 FRAFrancis BouilletTouristes Routiers05:37:45  +  00:00:00=31,976 
7 ITAAmulio ViarengoTouristes Routiers05:37:45  +  00:00:00=31,976 
8 BELRobert Van GrootenbrueleTouristes Routiers05:37:45  +  00:00:00=31,976 
9 BELAchille ViaeneTouristes Routiers05:37:45  +  00:00:00=31,976 
10 FRARobert BrugéreTouristes Routiers05:37:45  +  00:00:00=31,976 
11 GERKurt NitzschkeTouristes Routiers05:37:45  +  00:00:00=31,976 
12 FRAAdrien ButtafocchiTouristes Routiers05:37:45  +  00:00:00=31,976 
13 ITAAlessandro CatalaniTouristes Routiers05:37:45  +  00:00:00=31,976 
14 FRAFernand FayolleTouristes Routiers05:37:45  +  00:00:00=31,976 
15 BELJules GoedhuysTouristes Routiers05:37:45  +  00:00:00=31,976 
16 FRAMarius GuiramandTouristes Routiers05:37:45  +  00:00:00=31,976 
17 BELAuguste Van TrichtTouristes Routiers05:37:45  +  00:00:00=31,976 
18 FRAAndré Van VierstTouristes Routiers05:37:45  +  00:00:00=31,976 
19 BELJean NaertTouristes Routiers05:37:45  +  00:00:00=31,976 
20 FRAFrancois FavéTouristes Routiers05:37:45  +  00:00:00=31,976 
21 FRARené BernardTouristes Routiers05:40:31  +  00:02:46=31,717 
22 FRAFrancois HenriTouristes Routiers05:40:40  +  00:02:55=31,703 
23 BELFrançois MoreelsTouristes Routiers05:40:46  +  00:03:01=31,693 
24 ITARafaële Di PacoITAItaly05:48:32  +  00:10:47=30,987 
25 FRACharles PelissierFRAFrance05:48:32  +  00:10:47=30,987 
26 FRALéon Le CalvezFRAFrance05:48:32  +  00:10:47=30,987 
27 BELMaurice De WaeleBELBelgium05:48:32  +  00:10:47=30,987 
28 GERKurt StöpelDEUGermany05:48:32  +  00:10:47=30,987 
29 BELGaston RebryBELBelgium05:48:32  +  00:10:47=30,987 
30 BELAlfred HamerlinckBELBelgium05:48:32  +  00:10:47=30,987 
31 BELAlfons SchepersBELBelgium05:48:32  +  00:10:47=30,987 
32 BELJef DemuysereBELBelgium05:48:32  +  00:10:47=30,987 
33 BELRomain GijsselsBELBelgium05:48:32  +  00:10:47=30,987 
34 BELJulien VervaeckeBELBelgium05:48:32  +  00:10:47=30,987 
35 ESPFrancisco CepedaESPSpain05:48:32  +  00:10:47=30,987 
36 FRALouis PeglionFRAFrance05:48:32  +  00:10:47=30,987 
37 FRAJoseph MauclairFRAFrance05:48:32  +  00:10:47=30,987 
38 SUIRoger PipozCHEAustralia-Switzerland05:48:32  +  00:10:47=30,987 
39 AUSRichard LambCHEAustralia-Switzerland05:48:32  +  00:10:47=30,987 
40 AUSHubert OppermanCHEAustralia-Switzerland05:48:32  +  00:10:47=30,987 
41 ITAAntonio PesentiITAItaly05:48:32  +  00:10:47=30,987 
42 ITAMichele OrecchiaITAItaly05:48:32  +  00:10:47=30,987 
43 ITAFelice GremoITAItaly05:48:32  +  00:10:47=30,987 
44 ITAEugenio GestriITAItaly05:48:32  +  00:10:47=30,987 
45 ITAFabio BattesiniITAItaly05:48:32  +  00:10:47=30,987 
46 ITALuigi GiacobbeITAItaly05:48:32  +  00:10:47=30,987 
47 BELBernard Van RysselbergheBELBelgium05:48:32  +  00:10:47=30,987 
48 SUIGeorges AntenenCHEAustralia-Switzerland05:48:32  +  00:10:47=30,987 
49 SUIAlbert BüchiCHEAustralia-Switzerland05:48:32  +  00:10:47=30,987 
50 GEROskar ThierbachDEUGermany05:48:32  +  00:10:47=30,987 
51 GERLudwig GeyerDEUGermany05:48:32  +  00:10:47=30,987 
52 FRABenoit FaureFRAFrance05:48:32  +  00:10:47=30,987 
53 FRAAntonin MagneFRAFrance05:48:32  +  00:10:47=30,987 
54 GERKarl AltenburgerDEUGermany05:48:32  +  00:10:47=30,987 
55 GERHerbert SieronskiDEUGermany05:48:32  +  00:10:47=30,987 
56 GERHermann BuseDEUGermany05:48:32  +  00:10:47=30,987 
57 POLAlfred SiegelDEUGermany05:48:32  +  00:10:47=30,987 
58 GERErich MetzeDEUGermany05:48:32  +  00:10:47=30,987 
59 FRALouis BajardTouristes Routiers05:49:03  +  00:11:18=30,941 
60 FRALazare VenotTouristes Routiers05:49:03  +  00:11:18=30,941 
61 ITAFrancesco CamussoITAItaly05:50:59  +  00:13:14=30,771 
62 FRAAndré LeducqFRAFrance05:51:14  +  00:13:29=30,749 
63 FRAJean MaréchalFRAFrance05:51:32  +  00:13:47=30,723 
64 FRAGeorges BertonTouristes Routiers05:55:45  +  00:18:00=30,358 
65 GERErich UssatTouristes Routiers05:55:45  +  00:18:00=30,358 


Todays birthdays.

1877  Antoine Perrichon
1878  Auguste Berthault
1911  Théo Herckenrath
1924  Carlo Lafranchi
1931  Armand Di Caro
1937  Jean-Claude Lebaube
1951  Giovanni Battaglin
1961  Pascal Jules
1962  Jean-Claude Leclercq
1976  Janek Tombak
1978  Francisco Pérez
1983  Dries Devenyns




Visits: